Burlington, WA
on Thursday, November 22, 2012

Thursday
Previous Day Next Day
Daily Summary
 ActualAverage (KBLI)Record (KBLI)
Temperature
Mean Temperature °F 42°F  
Max Temperature 48°F 48°F 60°F (1995)
Min Temperature 37°F 35°F 11°F (1985)
Degree Days
Heating Degree Days 22 23  
Month to date heating degree days 459  
Cooling Degree Days 0 0  
Month to date cooling degree days 0  
Year to date cooling degree days 42  
Moisture
Dew Point 39°F   
Average Humidity 86    
Maximum Humidity 100    
Minimum Humidity 66    
Precipitation
Precipitation 0.02 in 0.19 in 0.92 in (2011)
Month to date precipitation 4.32  
Year to date precipitation 30.13  
Wind
Wind Speed 6 mph   
Max Wind Speed 20 mph   
Max Gust Speed 25 mph   
Visibility 10 miles   
Events     

Key: T is trace of precipitation, MM is missing value
Source: NWS Daily Summary
Time(PST)TemperatureDew PointHumidity Pressure Visibility Wind DirectionWind SpeedGust SpeedPrecipitationEvents Conditions
12:15 AM 42.8°F 41.0°F 93% 30.30 in 10.0 miles SE 4.6 mph - 0.00 in   Partly Cloudy
12:35 AM 41.0°F 41.0°F 100% 30.30 in 10.0 miles South 5.8 mph - 0.00 in   Clear
12:55 AM 42.8°F 41.0°F 93% 30.31 in 10.0 miles SE 3.5 mph - 0.00 in   Clear
1:15 AM 41.0°F 41.0°F 100% 30.31 in 10.0 miles Calm Calm - 0.00 in   Clear
1:35 AM 39.2°F 39.2°F 100% 30.32 in 10.0 miles Calm Calm - 0.00 in   Clear
1:55 AM 39.2°F 39.2°F 100% 30.32 in 10.0 miles NE 3.5 mph - 0.00 in   Clear
2:15 AM 39.2°F 39.2°F 100% 30.32 in 10.0 miles ENE 4.6 mph - 0.00 in   Clear
2:35 AM 39.2°F 39.2°F 100% 30.32 in 10.0 miles East 5.8 mph - 0.00 in   Clear
3:15 AM 39.2°F 39.2°F 100% 30.34 in 10.0 miles Calm Calm - 0.00 in   Clear
3:35 AM 39.2°F 39.2°F 100% 30.34 in 10.0 miles Calm Calm - 0.00 in   Clear
3:55 AM 39.2°F 39.2°F 100% 30.34 in 10.0 miles East 3.5 mph - 0.00 in   Clear
4:15 AM 39.2°F 39.2°F 100% 30.35 in 10.0 miles East 3.5 mph - 0.00 in   Clear
4:35 AM 39.2°F 39.2°F 100% 30.35 in 10.0 miles ENE 3.5 mph - 0.00 in   Clear
4:55 AM 39.2°F 39.2°F 100% 30.36 in 10.0 miles East 3.5 mph - 0.00 in   Clear
5:15 AM 39.2°F 39.2°F 100% 30.36 in 10.0 miles East 4.6 mph - 0.00 in   Clear
5:35 AM 37.4°F 37.4°F 100% 30.37 in 10.0 miles ENE 5.8 mph - 0.00 in   Clear
5:55 AM 37.4°F 37.4°F 100% 30.37 in 10.0 miles ENE 6.9 mph - 0.00 in   Partly Cloudy
6:15 AM 39.2°F 39.2°F 100% 30.37 in 10.0 miles ENE 6.9 mph - 0.00 in   Clear
6:35 AM 39.2°F 39.2°F 100% 30.37 in 10.0 miles Calm Calm - 0.00 in   Scattered Clouds
6:55 AM 39.2°F 39.2°F 100% 30.37 in 10.0 miles East 3.5 mph - 0.00 in   Mostly Cloudy
7:15 AM 39.2°F 39.2°F 100% 30.37 in 10.0 miles East 5.8 mph - 0.00 in   Overcast
7:35 AM 39.2°F 39.2°F 100% 30.37 in 10.0 miles East 6.9 mph - 0.00 in   Overcast
7:55 AM 39.2°F 39.2°F 100% 30.37 in 10.0 miles ENE 10.4 mph - 0.00 in   Scattered Clouds
8:15 AM 39.2°F 39.2°F 100% 30.37 in 10.0 miles ENE 8.1 mph - 0.00 in   Partly Cloudy
8:35 AM 41.0°F 39.2°F 93% 30.37 in 10.0 miles East 9.2 mph - 0.00 in   Partly Cloudy
8:55 AM 41.0°F 39.2°F 93% 30.37 in 10.0 miles East 10.4 mph - 0.00 in   Clear
9:15 AM 41.0°F 39.2°F 93% 30.37 in 10.0 miles East 9.2 mph - 0.00 in   Partly Cloudy
9:35 AM 42.8°F 39.2°F 87% 30.36 in 10.0 miles East 9.2 mph - 0.00 in   Clear
9:55 AM 42.8°F 39.2°F 87% 30.36 in 10.0 miles East 10.4 mph - 0.00 in   Partly Cloudy
10:15 AM 42.8°F 39.2°F 87% 30.36 in 10.0 miles East 9.2 mph - 0.00 in   Scattered Clouds
10:35 AM 42.8°F 41.0°F 93% 30.36 in 10.0 miles East 8.1 mph - 0.00 in   Mostly Cloudy
10:55 AM 42.8°F 41.0°F 93% 30.36 in 10.0 miles East 12.7 mph - 0.00 in   Partly Cloudy
11:15 AM 44.6°F 39.2°F 81% 30.35 in 10.0 miles East 12.7 mph - 0.00 in   Clear
11:35 AM 44.6°F 39.2°F 81% 30.35 in 10.0 miles East 13.8 mph - 0.00 in   Clear
11:55 AM 44.6°F 39.2°F 81% 30.35 in 10.0 miles East 12.7 mph 17.3 mph 0.00 in   Clear
12:15 PM 44.6°F 39.2°F 81% 30.34 in 10.0 miles East 13.8 mph - 0.00 in   Clear
12:35 PM 44.6°F 39.2°F 81% 30.33 in 10.0 miles East 15.0 mph - 0.00 in   Partly Cloudy
12:55 PM 44.6°F 39.2°F 81% 30.33 in 10.0 miles ENE 9.2 mph - 0.00 in   Clear
1:15 PM 44.6°F 39.2°F 81% 30.32 in 10.0 miles East 11.5 mph - 0.00 in   Clear
2:15 PM 46.4°F 39.2°F 76% 30.31 in 10.0 miles East 10.4 mph - 0.00 in   Clear
2:35 PM 46.4°F 39.2°F 76% 30.29 in 10.0 miles East 12.7 mph - 0.00 in   Scattered Clouds
2:55 PM 46.4°F 39.2°F 76% 30.30 in 10.0 miles East 9.2 mph - 0.00 in   Mostly Cloudy
3:15 PM 44.6°F 39.2°F 81% 30.31 in 10.0 miles ENE 8.1 mph - 0.00 in   Mostly Cloudy
3:35 PM 44.6°F 39.2°F 81% 30.31 in 10.0 miles ENE 9.2 mph - 0.00 in   Mostly Cloudy
3:55 PM 44.6°F 39.2°F 81% 30.29 in 10.0 miles ENE 11.5 mph - 0.00 in   Overcast
4:15 PM 44.6°F 39.2°F 81% 30.29 in 10.0 miles East 12.7 mph - 0.00 in   Overcast
4:35 PM 44.6°F 39.2°F 81% 30.29 in 10.0 miles ENE 8.1 mph - 0.00 in   Mostly Cloudy
4:55 PM 44.6°F 39.2°F 81% 30.27 in 10.0 miles East 11.5 mph - 0.00 in   Mostly Cloudy
5:15 PM 44.6°F 39.2°F 81% 30.28 in 10.0 miles East 9.2 mph - 0.00 in   Mostly Cloudy
5:35 PM 44.6°F 39.2°F 81% 30.26 in 10.0 miles ENE 10.4 mph - 0.00 in   Partly Cloudy
5:55 PM 44.6°F 39.2°F 81% 30.25 in 10.0 miles East 10.4 mph - 0.00 in   Clear
6:15 PM 44.6°F 39.2°F 81% 30.24 in 10.0 miles East 10.4 mph - 0.00 in   Clear
6:35 PM 46.4°F 39.2°F 76% 30.22 in 10.0 miles East 10.4 mph - 0.00 in   Clear
6:55 PM 46.4°F 37.4°F 71% 30.21 in 10.0 miles East 6.9 mph - 0.00 in   Clear
7:15 PM 46.4°F 37.4°F 71% 30.21 in 10.0 miles ENE 10.4 mph - 0.00 in   Clear
7:35 PM 46.4°F 37.4°F 71% 30.21 in 10.0 miles East 11.5 mph - 0.00 in   Clear
7:55 PM 46.4°F 37.4°F 71% 30.20 in 10.0 miles East 5.8 mph - 0.00 in   Clear
8:15 PM 46.4°F 37.4°F 71% 30.19 in 10.0 miles SE 6.9 mph - 0.00 in   Scattered Clouds
8:35 PM 46.4°F 37.4°F 71% 30.19 in 10.0 miles SE 3.5 mph - 0.00 in   Overcast
8:55 PM 44.6°F 39.2°F 81% 30.18 in 10.0 miles ESE 3.5 mph - 0.00 in   Overcast
9:15 PM 44.6°F 37.4°F 76% 30.18 in 10.0 miles Calm Calm - 0.00 in   Overcast
9:35 PM 46.4°F 37.4°F 71% 30.18 in 10.0 miles Calm Calm - 0.00 in   Overcast
9:55 PM 46.4°F 37.4°F 71% 30.17 in 10.0 miles ESE 4.6 mph - 0.00 in   Scattered Clouds
10:15 PM 48.2°F 37.4°F 66% 30.19 in 10.0 miles SSE 5.8 mph - 0.00 in   Clear
10:35 PM 46.4°F 37.4°F 71% 30.19 in 10.0 miles SSE 6.9 mph - 0.00 in   Partly Cloudy
10:55 PM 46.4°F 39.2°F 76% 30.19 in 8.0 miles ESE 3.5 mph - 0.00 in   Mostly Cloudy
11:15 PM 46.4°F 39.2°F 76% 30.18 in 8.0 miles SSE 8.1 mph - 0.01 in   Overcast
11:35 PM 46.4°F 41.0°F 81% 30.16 in 10.0 miles ESE 16.1 mph 19.6 mph 0.02 in   Overcast
11:55 PM 48.2°F 41.0°F 76% 30.15 in 10.0 miles ESE 19.6 mph 25.3 mph 0.02 in   Overcast
Moon Phase
Nov. 22 Nov. 28 Dec. 06 Dec. 13 Dec. 20
Sunrise:07:28 AM (PST) Moon Rise:01:32 PM (PST)
Sunset:04:22 PM (PST) Moon Set:01:30 AM (PST)

Copyright © 2014 The Weather Underground, Inc.